This is the latest recevied weather packets stored in our database for station/object K0JRF-13. If no packets are shown the sender has not sent any weather packets the latest 10 day(s).
| Time | Temp. | Humidity | Pressure | Rain* | Wind** | Luminosity | Snow |
|---|---|---|---|---|---|---|---|
| 1787599650 | 17.22° C | 78% | 1015.6 hPa | - | - | - | - |
| 1787599050 | 17.22° C | 76% | 1015.6 hPa | - | - | - | - |
| 1787598450 | 17.22° C | 75% | 1015.2 hPa | - | - | - | - |
| 1787597850 | 17.22° C | 73% | 1015.2 hPa | - | - | - | - |
| 1787597250 | 17.22° C | 74% | 1015.2 hPa | - | - | - | - |
| 1787596650 | 17.22° C | 77% | 1015.2 hPa | - | - | - | - |
| 1787596051 | 17.22° C | 75% | 1015.2 hPa | - | - | - | - |
| 1787595450 | 17.22° C | 71% | 1014.9 hPa | - | - | - | - |
| 1787594850 | 17.22° C | 73% | 1014.9 hPa | - | - | - | - |
| 1787594250 | 17.22° C | 74% | 1014.9 hPa | - | - | - | - |
| 1787593650 | 17.78° C | 73% | 1014.9 hPa | - | - | - | - |
| 1787593050 | 17.78° C | 73% | 1014.9 hPa | - | - | - | - |
| 1787592450 | 17.78° C | 74% | 1014.9 hPa | - | - | - | - |
| 1787591850 | 17.22° C | 76% | 1014.9 hPa | - | - | - | - |
| 1787591250 | 17.78° C | 75% | 1014.6 hPa | - | - | - | - |
| 1787590650 | 17.78° C | 76% | 1014.9 hPa | - | - | - | - |
| 1787590050 | 17.78° C | 78% | 1014.9 hPa | - | - | - | - |
| 1787589450 | 18.33° C | 77% | 1014.6 hPa | - | - | - | - |
| 1787588850 | 18.33° C | 78% | 1014.6 hPa | - | - | - | - |
| 1787588250 | 17.78° C | 85% | 1014.6 hPa | - | - | - | - |
| 1787587650 | 16.67° C | 86% | 1014.6 hPa | - | - | - | - |
| 1787587050 | 16.11° C | 87% | 1014.2 hPa | - | - | - | - |
| 1787586450 | 16.11° C | 88% | 1014.6 hPa | - | - | - | - |
| 1787585850 | 16.11° C | 89% | 1014.2 hPa | - | - | - | - |
| 1787585250 | 15.56° C | 90% | 1014.2 hPa | - | - | - | - |
* Rain since midnight (hover to see other rain measurements)
** Current wind speed in m/s (hover to see current wind gust speed)